Home   Weather   Gütersloh   Past weeks

Flag for Germany Past Weather in Gütersloh, North Rhine-Westphalia, Germany — Yesterday and Last 2 Weeks

Now
50 °F

Drizzle. Fog.


Feels Like: 45 °F
Forecast: 44 / 50 °F
Wind: 14 mph from West

Location: Muenster / Osnabrueck

Current Time: Feb 21, 2017 at 12:06:28 am

Latest Report: Feb 20, 2017 at 11:20 pm


Visibility: 2 mi

Pressure: 29.86 "Hg

Humidity: 100%

Dew Point: 50 °F

Location of GüterslohLocation

Past Weather in Gütersloh — Graph

°F

Gütersloh Temperature Yesterday

Maximum temperature yesterday: 50 °F (at 5:20 pm)
Minimum temperature yesterday: 43 °F (at 12:20 am)
Average temperature yesterday: 47 °F

High & Low Weather Summary for the Past Weeks

 TemperatureHumidityPressure
High55 °F (Feb 15, 2:50 pm)100% (Feb 6, 2:20 am)30.51 "Hg (Feb 6, 2:20 am)
Low27 °F (Feb 9, 10:50 pm)29% (Feb 14, 12:20 pm)29.77 "Hg (Feb 5, 10:20 pm)
Average37 °F83%30.26 "Hg
* Reported Feb 5 10:20 pm — Feb 20 10:50 pm, Gütersloh, Weather by CustomWeather, © 2017

Note: Actual official high and low records may vary slightly from our data, if they occured in-between our weather recording intervals... More about our weather records

Advertising

Gütersloh Weather History for the Previous 24 Hours

Scroll right to see more
 ConditionsComfort  
Time TempWeatherWind HumidityBarometerVisibility
10:50 pm
Mon, Feb 20
50 °FDrizzle. Fog.13 mph100%29.86 "Hg3 mi
10:20 pm50 °FDrizzle. Fog.14 mph100%29.86 "Hg3 mi
9:50 pm50 °FDrizzle. Fog.15 mph100%29.86 "Hg3 mi
9:20 pm50 °FDrizzle. Fog.14 mph100%29.86 "Hg2 mi
8:50 pm50 °FDrizzle. Fog.15 mph100%29.86 "Hg2 mi
8:20 pm50 °FPassing clouds.16 mph100%29.86 "Hg3 mi
7:50 pm50 °FPassing clouds.15 mph94%29.89 "Hg4 mi
7:20 pm50 °FPassing clouds.15 mph94%29.89 "Hg4 mi
6:50 pm50 °FPassing clouds.17 mph94%29.89 "Hg4 mi
6:20 pm50 °FPassing clouds.15 mph94%29.89 "Hg6 mi
5:50 pm50 °FDrizzle. Partly sunny.16 mph94%29.89 "Hg6 mi
5:20 pm50 °FDrizzle. Partly sunny.16 mph94%29.89 "Hg5 mi
4:50 pm48 °FDrizzle. Partly sunny.14 mph100%29.89 "Hg2 mi
4:20 pm48 °FDrizzle. Partly sunny.16 mph100%29.89 "Hg2 mi
3:50 pm48 °FPartly sunny.16 mph100%29.89 "Hg6 mi
3:20 pm48 °FDrizzle. Partly sunny.18 mph94%29.89 "Hg4 mi
2:50 pm48 °FPartly sunny.17 mph94%29.92 "HgN/A
2:20 pm48 °FPartly sunny.17 mph94%29.92 "Hg6 mi
1:50 pm48 °FDrizzle. Partly sunny.16 mph94%29.92 "Hg6 mi
1:20 pm48 °FDrizzle. Partly sunny.16 mph94%29.92 "Hg6 mi
12:50 pm46 °FDrizzle. Fog.16 mph100%29.95 "Hg3 mi
12:20 pm46 °FDrizzle. Fog.16 mph100%29.98 "Hg2 mi
11:50 am46 °FDrizzle. Partly sunny.16 mph100%29.98 "Hg5 mi
11:20 am46 °FDrizzle. Partly sunny.14 mph93%29.98 "HgN/A
10:50 am46 °FDrizzle. Partly sunny.15 mph93%29.98 "Hg5 mi
10:20 am46 °FDrizzle. Partly sunny.15 mph93%29.98 "Hg5 mi
9:50 am46 °FDrizzle. Partly sunny.14 mph93%29.98 "Hg4 mi
9:20 am45 °FDrizzle. Partly sunny.14 mph100%30.01 "Hg4 mi
8:50 am45 °FDrizzle. Fog.14 mph100%30.01 "Hg3 mi
8:20 am45 °FFog.12 mph100%30.01 "Hg3 mi
7:50 am45 °FDrizzle. Fog.10 mph93%30.04 "Hg3 mi
7:20 am45 °FDrizzle. Fog.12 mph93%30.04 "Hg3 mi
6:50 am45 °FFog.10 mph93%30.04 "Hg3 mi
6:20 am45 °FFog.10 mph93%30.04 "Hg3 mi
5:50 am45 °FFog.8 mph93%30.04 "Hg3 mi
5:20 am45 °FPartly cloudy.10 mph93%30.04 "Hg4 mi
4:50 am45 °FPassing clouds.8 mph87%30.07 "Hg4 mi
4:20 am45 °FPassing clouds.9 mph87%30.07 "Hg4 mi
3:50 am43 °FFog.9 mph93%30.07 "Hg3 mi
3:20 am43 °FFog.7 mph100%30.07 "Hg2 mi
2:50 am43 °FFog.7 mph100%30.09 "Hg2 mi
2:20 am43 °FFog.8 mph100%30.09 "Hg2 mi
1:50 am43 °FFog.9 mph100%30.09 "Hg2 mi
1:20 am43 °FDrizzle. Fog.8 mph100%30.09 "Hg2 mi
12:50 am43 °FDrizzle. Fog.8 mph100%30.12 "Hg2 mi
12:20 am43 °FFog.9 mph100%30.12 "Hg2 mi
Weather by CustomWeather, © 2017

See weather overviewHow to use our weather pages